Strona główna
METAR-TAF:

METAR-TAF

Lotnisko :

Harding County Airport

Buffalo, Dakota Południowa, Stany Zjednoczone

Szerokość geograficzna: 45-36-16N, Długość geograficzna: 103-32-47W, wysokość: 915 m

Aktualna obserwacja pogody

Raport powstał 43 minut temu, godzina 22:56 UTC
Wiatr 7 kt od wschód
Temperatura 6°C
Wilgotność 31%
Ciśnienie 1013 hPa

METAR: K2WX 232256Z AUTO 09007KT 06/M10 A2992 RMK AO1 SLP152 T00561100

czas: 16:39 (23:39 UTC)


TAF: brakujący

Obserwacja i prognoza pogody dla ponad 4000 lotnisk (raport METAR i TAF).

Dostępne stacje oznaczono żółtymi i czerwonymi punktami na mapie.

Najedź kursorem aby zobaczyć nazwę stacji.

Kliknij aby zobaczyć obserwacje i prognozy pogody.

Aby zmienić mapę: kliknij na zielony przycisk z czarnym krzyżykiem, aby powiększyć; na zielony przycisk z myślnikiem, aby pomniejszyć; na zielone strzałki, aby przejść do map sąsiednich.


METAR-TAF: